User: anonymous   Login
Location: Dampvalley
(47.9094°N, 6.1967°E)
Time: 20:24:12
(UTC+00:00)
Language:

H-2A R/B - Orbit

View from above orbital plane
View from above orbital plane
View from above satellite
View from above satellite

Ground track
Ground track

The orbit data is extracted from the following two-line orbital elements,

1 38341U 12025E   21136.50539897  .00000137  00000-0  23698-4 0  9991
2 38341  98.5276 319.8079 0054268 241.5423 118.0316 14.84217599486762
Epoch (UTC): 16 May 2021 12:07:46
Eccentricity: 0.0054268
inclination: 98.5276°
perigee height: 578 km
apogee height: 654 km
right ascension of ascending node: 319.8079°
argument of perigee: 241.5423°
revolutions per day: 14.84217599
mean anomaly at epoch: 118.0316°
orbit number at epoch: 48676

The dashed part of the orbit path shows where the satellite is in the earth's shadow,  

DLR